Meteo Giornale » Osservazioni meteo Brasile » Uberlandia
ore: 02:00 - Osservazioni Meteo Uberlandia
Lat. 18° 53' S Lon. 48° 14' W Alt. 943 metri s.l.m.
26 °C
Sereno
Temp. 24 Ore
25 °C
33 °C
Nord-Est
18.5 Km/h
Dew point 11 °C
Umidità 39 %
Visibilità 10 Km
Il sole sorge alle ore 06:20
Il sole tramonta alle ore 18:05
| Data e Ora | Cielo e Fenomeni | T °C | DP °C | Um. % | Pres. hPa | Vis. km | Vento km/h | |
|---|---|---|---|---|---|---|---|---|
| Oggi h: 02:00 | Sereno | 26 | 11 | 39 | 1016 | 10 | NE 18.5 | |
| Oggi h: 01:00 | Sereno | 26 | 11 | 39 | 1016 | 10 | NE 16.7 | |
| Oggi h: 00:00 | Sereno | 27 | 12 | 39 | 1016 | 10 | NE 18.5 | |
| Ieri h: 23:00 | Sereno | 26 | 12 | 41 | 1016 | 10 | E/NE 14.8 | |
| Ieri h: 22:00 | Sereno | 28 | 12 | 37 | 1015 | 10 | E 14.8 | |
| Ieri h: 21:00 | Sereno | 29 | 12 | 35 | 1015 | 10 | E 14.8 | |
| Ieri h: 20:00 | Sereno | 30 | 12 | 33 | 1015 | 10 | E 11.1 | |
| Ieri h: 19:00 | Sereno | 30 | 12 | 33 | 1014 | 10 | E 9.3 | |
| Ieri h: 18:00 | Sereno | 31 | 12 | 31 | 1014 | 10 | NE 13 | |
| Ieri h: 17:00 | Sereno | 33 | 11 | 26 | 1014 | 10 | NE 14.8 | |
| Ieri h: 16:00 | Nuvoloso | 33 | 11 | 26 | 1014 | 10 | N 20.3 | |
| Ieri h: 15:00 | Nuvoloso | 33 | 11 | 26 | 1014 | 10 | N/NE 22.2 | |
| Ieri h: 14:00 | Nuvoloso | 33 | 11 | 26 | 1015 | 10 | N/NE 22.2 | |
| Ieri h: 13:00 | Sereno | 32 | 11 | 27 | 1016 | 10 | NE 24 | |
| Ieri h: 12:00 | Sereno | 31 | 13 | 33 | 1017 | 10 | NE 27.8 | |
| Ieri h: 11:00 | Poco Nuvoloso | 30 | 13 | 35 | 1018 | 10 | NE 27.8 | |
| Ieri h: 10:00 | Poco Nuvoloso | 28 | 13 | 39 | 1018 | 10 | E/NE 27.8 | |
| Ieri h: 09:00 | Poco Nuvoloso | 27 | 12 | 39 | 1018 | 10 | E/NE 27.8 | |
| Ieri h: 08:00 | Nuvoloso | 25 | 13 | 47 | 1018 | 10 | E 11.1 | |
| Ieri h: 07:00 | Nuvoloso | 25 | 12 | 44 | 1017 | 10 | E 14.8 | |
| Ieri h: 06:00 | Sereno | 25 | 13 | 47 | 1017 | 10 | E 18.5 | |
| Ieri h: 05:00 | Sereno | 26 | 13 | 44 | 1016 | 10 | E 13 | |
| Ieri h: 04:00 | Sereno | 26 | 13 | 44 | 1016 | 10 | E 9.3 | |



